Location: La Brionne
(46.1728°N, 1.7849°E)
Time: 08:38:46
(UTC+00:00)

Cosmos 2058 Rocket - Pass Details

Date: 16 June 2021
Orbit: 609 x 640 km, 82.5° (Epoch: 31 July)

Event Time Altitude Azimuth Distance (km) Brightness Sun altitude
Rises 23:17:45 0° 350° (N) 2,935 8.2 -20.0°
Reaches altitude 10° 23:20:01 10° 350° (N) 2,018 6.9 -20.0°
Maximum altitude 23:24:29 86° 263° (W) 633 3.0 -20.1°
Enters shadow 23:25:34 52° 178° (S) 782 3.1 -20.2°
